DateTime,F1_A11,F1_S11,BsB_S11,BsG_S11,BsR_S11,BbsB_S11,BbsG_S11,BbsR_S11,BaB_A11,BaG_A11,BaR_A11,T_S11,U_S11,P_S11,T1_A11
2016-07-30T00:00:00Z,0000388,20000608,,,,,,,,,,27.3,01.7,0677.8,34.6
2016-07-30T00:01:00Z,0000388,20000608,,,,,,,,,,27.3,01.7,0677.8,34.6
2016-07-30T00:02:00Z,0000388,20000608,,,,,,,,,,27.3,01.7,0677.8,34.6
2016-07-30T00:03:00Z,0000388,60000608,,,,,,,,,,27.4,01.7,0677.8,34.6
2016-07-30T00:04:00Z,0000388,40000608,0000.67,-000.35,-000.22,0000.19,0000.02,-000.06,0000.42,0000.10,0000.23,27.5,01.6,0678.8,34.6
2016-07-30T00:05:00Z,0000388,00000608,0000.56,0000.25,-000.36,0000.00,-000.50,-000.19,-000.18,-000.12,-000.34,27.5,01.6,0678.8,34.6
2016-07-30T00:06:00Z,0000388,00000608,0000.15,0000.14,-000.14,0000.37,-000.23,-000.03,0000.01,0000.01,-000.12,27.5,01.6,0678.8,34.6
2016-07-30T00:07:00Z,0000388,00000608,0000.09,0000.09,-000.20,0000.28,-000.34,-000.02,-000.34,-000.04,-000.01,27.5,01.5,0678.8,34.6
2016-07-30T00:08:00Z,0000388,00000608,0000.19,0000.23,-000.28,0000.31,0000.09,-000.14,0000.33,0000.19,0000.14,27.5,01.5,0678.8,34.6
2016-07-30T00:09:00Z,0000388,00000608,0000.72,-000.88,-000.17,0000.31,0000.28,-000.09,-000.19,-000.09,-000.15,27.5,01.5,0678.8,34.6
2016-07-30T00:10:00Z,0000388,00000608,0001.85,-000.04,-000.57,0000.17,-000.25,0000.06,0000.17,-000.28,0000.01,27.5,01.5,0678.8,34.6
2016-07-30T00:11:00Z,0000388,00000608,0000.48,0000.39,-000.28,0000.20,-000.02,-000.06,-000.11,0000.17,0000.03,27.5,01.5,0678.8,34.6
2016-07-30T00:12:00Z,0000388,01000608,0000.89,0000.21,-000.17,-000.09,-000.19,-000.13,-000.05,0000.17,0000.19,27.5,01.5,0678.8,34.6
2016-07-30T00:13:00Z,0000388,00000608,0000.29,0000.01,-000.19,0000.59,-000.23,-000.38,0000.06,-000.01,0000.11,27.5,01.5,0678.8,34.6
2016-07-30T00:14:00Z,0000388,00000608,0000.88,0000.04,-000.22,-000.11,-000.09,-000.09,-000.05,-000.14,0000.16,27.5,01.6,0678.8,34.6
2016-07-30T00:15:00Z,0000388,00000608,0000.45,-000.03,-000.36,-000.34,-000.23,-000.36,0000.11,-000.08,-000.46,27.5,01.4,0678.8,34.6
2016-07-30T00:16:00Z,0000388,00000608,0000.10,0000.63,0000.00,0000.77,0000.12,0000.00,-000.01,0000.15,0000.10,27.5,01.5,0678.8,34.6
2016-07-30T00:17:00Z,0000388,00000608,0000.46,-000.14,-000.08,0000.41,-000.25,0000.00,0000.04,-000.17,0000.14,27.5,01.5,0678.8,34.6
2016-07-30T00:18:00Z,0000388,00000608,0000.54,-000.03,-000.28,0000.16,-000.16,-000.17,-000.02,0000.13,0000.09,27.5,01.4,0678.8,34.6
2016-07-30T00:19:00Z,0000388,00000608,0000.79,-000.46,-000.64,0000.12,-000.25,-000.11,-000.27,-000.17,-000.26,27.5,01.4,0678.8,34.6
2016-07-30T00:20:00Z,0000388,01000608,0000.67,0000.02,-000.47,-000.30,-000.44,-000.44,0000.03,0000.08,0000.11,27.5,01.4,0678.8,34.6
2016-07-30T00:21:00Z,0000388,01000608,0001.55,0000.12,-000.45,0000.22,0000.06,0000.13,-000.03,-000.13,-000.37,27.5,01.4,0678.8,34.6
2016-07-30T00:22:00Z,0000388,01000608,0000.19,0000.29,-000.20,-000.19,-000.12,-000.11,-000.03,0000.14,0000.44,27.5,01.4,0678.8,34.6
2016-07-30T00:23:00Z,0000388,01000608,0001.02,-000.48,-000.60,0000.17,-000.20,-000.41,0000.01,-000.21,-000.41,27.5,01.4,0678.8,34.6
2016-07-30T00:24:00Z,0000388,01000608,0000.77,-000.76,0000.48,0000.02,-000.28,-000.17,-000.09,0000.14,0000.27,27.5,01.3,0678.8,34.6
2016-07-30T00:25:00Z,0000388,01000608,0001.49,0000.12,-000.02,0000.92,-000.45,0000.00,0000.10,-000.06,0000.14,27.5,01.4,0678.8,34.6
2016-07-30T00:26:00Z,0000388,01000608,0001.11,0000.35,-000.29,0000.55,-000.51,0000.05,0000.00,-000.11,-000.31,27.5,01.4,0678.8,34.6
2016-07-30T00:27:00Z,0000388,01000608,0000.18,-000.11,0000.02,-000.23,-000.61,0000.31,-000.09,0000.11,0000.21,27.5,01.4,0678.8,34.6
2016-07-30T00:28:00Z,0000388,01000608,0001.28,-000.09,0000.16,0000.20,-000.34,-000.14,-000.04,-000.21,-000.12,27.5,01.3,0678.8,34.6
2016-07-30T00:29:00Z,0000388,01000608,0000.67,0000.04,-000.09,0000.56,-000.17,-000.25,0000.00,0000.04,0000.17,27.5,01.4,0678.8,34.6
2016-07-30T00:30:00Z,0000388,00000608,0000.38,-000.04,-000.48,0000.34,0000.00,-000.20,-000.02,0000.02,-000.13,27.5,01.3,0678.8,34.6
2016-07-30T00:31:00Z,0000388,01000608,0000.33,0000.09,-000.25,-000.23,-000.44,-000.22,-000.07,-000.03,0000.00,27.5,01.4,0678.8,34.6
2016-07-30T00:32:00Z,0000388,01000608,0000.49,0000.58,0000.21,0000.84,-000.31,0000.27,0000.09,0000.19,0000.11,27.5,01.3,0678.8,34.6
2016-07-30T00:33:00Z,0000388,01000608,0000.68,-000.11,-000.10,-000.16,-000.23,0000.13,-000.13,-000.03,-000.26,27.5,01.3,0678.8,34.6
2016-07-30T00:34:00Z,0000388,01000608,0000.26,0000.12,-000.22,-000.67,-000.33,-000.08,0000.01,-000.04,0000.25,27.5,01.3,0678.8,34.6
2016-07-30T00:35:00Z,0000388,01000608,0000.05,-000.11,-000.16,-000.37,-000.22,-000.11,0000.05,-000.11,-000.33,27.5,01.3,0678.8,34.6
2016-07-30T00:36:00Z,0000388,01000608,0000.23,0000.01,0000.11,0000.03,-000.34,0000.06,-000.02,-000.16,0000.07,27.5,01.3,0678.8,34.6
2016-07-30T00:37:00Z,0000388,01000608,0000.68,-000.19,-000.55,0000.44,-000.28,0000.17,-000.23,0000.26,-000.07,27.5,01.3,0678.8,34.6
2016-07-30T00:38:00Z,0000388,01000608,0000.75,-000.72,-000.55,0000.44,0000.17,-000.08,0000.34,-000.21,0000.01,27.5,01.3,0678.8,34.6
2016-07-30T00:39:00Z,0000388,01000608,0000.92,-000.11,-000.29,-000.61,-000.12,0000.30,-000.28,0000.04,0000.20,27.5,01.3,0678.7,34.6
2016-07-30T00:40:00Z,0000388,01000608,0000.02,-000.51,-000.16,0000.30,-000.23,0000.19,-000.08,0000.13,-000.22,27.5,01.3,0678.7,34.6
2016-07-30T00:41:00Z,0000388,01000608,0000.65,0000.11,0000.00,-000.09,-000.53,0000.06,0000.31,-000.15,0000.30,27.5,01.2,0678.8,34.6
2016-07-30T00:42:00Z,0000388,01000608,0000.74,0000.00,-000.65,-000.11,-000.25,-000.27,-000.18,0000.05,-000.07,27.5,01.3,0678.8,34.6
2016-07-30T00:43:00Z,0000388,01000608,0000.29,-000.30,-000.21,0000.33,-000.12,0000.20,0000.19,0000.01,-000.34,27.5,01.2,0678.8,34.6
2016-07-30T00:44:00Z,0000388,01000608,-000.27,0000.32,-000.10,0000.27,-000.42,-000.33,-000.26,0000.09,0000.46,27.5,01.3,0678.8,34.6
2016-07-30T00:45:00Z,0000388,01000608,-000.07,0000.20,0000.01,0000.14,-000.34,-000.03,0000.07,-000.07,-000.33,27.5,01.3,0678.7,34.6
2016-07-30T00:46:00Z,0000388,00000608,0001.32,0000.43,-000.48,-000.42,-000.40,-000.19,0000.06,0000.05,0000.11,27.5,01.4,0678.7,34.6
2016-07-30T00:47:00Z,0000388,01000608,0000.10,-000.16,0000.01,-000.08,-000.53,-000.03,-000.04,-000.12,0000.06,27.5,01.4,0678.7,34.6
2016-07-30T00:48:00Z,0000388,00000608,0000.09,-000.32,-000.28,0000.16,-000.30,0000.14,0000.12,0000.06,-000.06,27.5,01.4,0678.7,34.6
2016-07-30T00:49:00Z,0000388,00000608,-000.44,0000.15,-000.07,-000.67,-000.34,-000.23,-000.01,0000.10,-000.26,27.4,01.4,0678.7,34.6
2016-07-30T00:50:00Z,0000388,00000608,0000.52,0000.41,0000.38,0000.56,-000.11,0000.38,-000.01,0000.07,0000.36,27.5,01.5,0678.7,34.6
2016-07-30T00:51:00Z,0000388,00000608,0000.49,0000.02,0000.34,0000.05,-000.70,-000.17,-000.08,-000.13,0000.18,27.4,01.4,0678.7,34.6
2016-07-30T00:52:00Z,0000388,00000608,0001.09,0000.23,0000.02,0000.45,-000.11,-000.16,-000.11,0000.03,-000.16,27.4,01.5,0678.7,34.6
2016-07-30T00:53:00Z,0000388,01000608,0000.40,0000.03,-000.16,0000.39,-000.14,-000.14,-000.08,-000.07,-000.11,27.5,01.4,0678.7,34.6
2016-07-30T00:54:00Z,0000388,01000608,0001.04,0000.21,-000.08,0000.14,-000.56,-000.09,-000.03,0000.04,-000.12,27.4,01.4,0678.7,34.6
2016-07-30T00:55:00Z,0000388,01000608,0000.23,-000.09,-000.20,0000.20,-000.20,0000.25,0000.09,0000.01,0000.08,27.4,01.4,0678.7,34.6
2016-07-30T00:56:00Z,0000388,01000608,0001.73,-000.09,-000.64,-000.06,-000.05,-000.52,0000.03,-000.02,0000.20,27.4,01.3,0678.7,34.6
2016-07-30T00:57:00Z,0000388,40000608,,,,,,,,,,,,0678.8,34.6
2016-07-30T00:58:00Z,0000388,60000608,,,,,,,,,,27.3,01.5,0677.7,34.6
2016-07-30T00:59:00Z,0000388,20000608,,,,,,,,,,27.3,01.3,0677.7,34.6
2016-07-30T01:00:00Z,0000388,20000608,,,,,,,,,,27.3,01.3,0677.7,34.6
2016-07-30T01:01:00Z,0000388,20000608,,,,,,,,,,27.3,01.3,0677.7,34.6
2016-07-30T01:02:00Z,0000388,20000608,,,,,,,,,,27.3,01.3,0677.7,34.6
2016-07-30T01:03:00Z,0000388,60000608,,,,,,,,,,27.3,01.3,0677.7,34.6
2016-07-30T01:04:00Z,0000388,41000608,-000.83,0000.09,-000.31,-000.45,0000.02,0000.09,0000.03,-000.07,0000.06,27.3,01.3,0678.6,34.6
2016-07-30T01:05:00Z,0000388,01000608,0000.13,0000.02,-000.48,-000.47,0000.33,-000.11,0000.16,-000.00,0000.18,27.3,01.3,0678.7,34.6
2016-07-30T01:06:00Z,0000388,01000608,-001.26,-000.35,-000.10,0000.05,0000.47,0000.06,-000.04,-000.07,-000.26,27.3,01.2,0678.7,34.6
2016-07-30T01:07:00Z,0000388,01000608,0000.32,-000.05,0000.29,-000.89,0000.53,0000.00,0000.30,0000.02,0000.10,27.3,01.2,0678.7,34.6
2016-07-30T01:08:00Z,0000388,01000608,-000.13,-000.12,0000.03,-000.33,0000.03,0000.05,-000.19,0000.02,-000.01,27.3,01.2,0678.7,34.6
2016-07-30T01:09:00Z,0000388,01000608,-000.02,0000.05,0000.40,0000.28,-000.14,0000.36,0000.18,0000.04,0000.02,27.3,01.1,0678.7,34.6
2016-07-30T01:10:00Z,0000388,01000608,0000.11,-000.95,-000.29,-000.73,-000.08,0000.31,-000.25,0000.06,-000.19,27.3,01.2,0678.7,34.6
2016-07-30T01:11:00Z,0000388,01000608,-000.11,0000.04,0000.02,-000.58,0000.06,0000.05,0000.12,-000.10,0000.04,27.3,01.2,0678.7,34.6
2016-07-30T01:12:00Z,0000388,01000608,-000.05,-000.09,-000.12,-000.16,-000.02,0000.11,0000.02,-000.04,-000.18,27.3,01.1,0678.7,34.6
2016-07-30T01:13:00Z,0000388,01000608,-000.65,0000.26,-000.10,-000.09,0000.03,0000.14,-000.14,-000.03,0000.17,27.3,01.2,0678.7,34.6
2016-07-30T01:14:00Z,0000388,01000608,-000.34,0000.26,0000.03,-000.25,-000.06,0000.16,-000.00,0000.14,-000.31,27.3,01.1,0678.7,34.6
2016-07-30T01:15:00Z,0000388,01000608,-000.56,-000.62,-000.29,0000.05,0000.03,-000.11,-000.05,-000.05,0000.14,27.3,01.2,0678.7,34.6
2016-07-30T01:16:00Z,0000388,01000608,-000.68,-000.30,-000.02,-000.08,-000.19,0000.06,0000.15,-000.26,0000.08,27.3,01.1,0678.7,34.6
2016-07-30T01:17:00Z,0000388,01000608,0000.16,0000.16,0000.53,0000.16,0000.14,0000.25,-000.04,0000.20,-000.01,27.3,01.2,0678.7,34.6
2016-07-30T01:18:00Z,0000388,01000608,-000.12,0000.37,-000.02,-000.17,-000.22,0000.09,0000.09,-000.07,0000.14,27.3,01.1,0678.7,34.6
2016-07-30T01:19:00Z,0000388,01000608,-000.36,-000.16,-000.12,-000.19,-000.19,-000.14,-000.04,0000.04,-000.26,27.3,01.1,0678.7,34.6
2016-07-30T01:20:00Z,0000388,01000608,-000.23,-000.53,-000.28,0000.34,-000.20,-000.03,0000.01,-000.08,0000.18,27.3,01.1,0678.7,34.6
2016-07-30T01:21:00Z,0000388,01000608,0000.04,-000.23,-000.21,-000.50,0000.16,-000.06,0000.02,0000.03,0000.03,27.2,01.1,0678.7,34.6
2016-07-30T01:22:00Z,0000388,01000608,0000.52,-000.04,-000.62,0000.36,-000.03,0000.16,-000.03,0000.02,-000.00,27.2,01.2,0678.7,34.6
2016-07-30T01:23:00Z,0000388,01000608,-001.06,-000.39,0000.00,-000.14,-000.26,0000.02,0000.03,0000.04,-000.38,27.2,01.1,0678.7,34.6
2016-07-30T01:24:00Z,0000388,01000608,0000.51,0000.30,-000.26,-000.16,0000.44,0000.11,-000.11,-000.09,0000.33,27.2,01.1,0678.7,34.6
2016-07-30T01:25:00Z,0000388,01000608,0000.29,-000.18,-000.21,-000.08,0000.33,-000.13,-000.14,-000.03,-000.25,27.2,01.1,0678.7,34.6
2016-07-30T01:26:00Z,0000388,01000608,-000.31,-000.18,-000.29,-000.55,-000.06,0000.00,-000.09,0000.03,0000.16,27.2,01.2,0678.7,34.6
2016-07-30T01:27:00Z,0000388,01000608,0000.54,-000.63,0000.38,-000.58,-000.14,0000.05,0000.13,0000.05,0000.02,27.2,01.2,0678.7,34.6
2016-07-30T01:28:00Z,0000388,01000608,-000.33,0000.93,-000.16,-000.42,0000.19,0000.11,-000.10,0000.00,-000.06,27.2,01.2,0678.7,34.6
2016-07-30T01:29:00Z,0000388,01000608,-000.97,-000.49,-000.74,-000.34,-000.39,-000.05,0000.18,-000.00,0000.05,27.2,01.1,0678.7,34.6
2016-07-30T01:30:00Z,0000388,01000608,0000.20,0000.14,-000.09,-000.25,0000.12,0000.25,-000.09,-000.07,-000.16,27.2,01.2,0678.7,34.6
2016-07-30T01:31:00Z,0000388,01000608,-000.20,0000.35,-000.41,-000.31,-000.05,0000.11,0000.04,0000.15,0000.49,27.2,01.1,0678.7,34.6
2016-07-30T01:32:00Z,0000388,01000608,-000.13,-000.12,0000.12,-000.16,-000.37,0000.53,0000.09,-000.06,-000.37,27.2,01.2,0678.7,34.6
2016-07-30T01:33:00Z,0000388,01000608,-000.02,-000.05,0000.05,0000.62,0000.03,0000.06,-000.08,-000.15,0000.03,27.2,01.1,0678.7,34.6
2016-07-30T01:34:00Z,0000388,01000608,-000.59,-000.56,-000.22,-000.50,0000.11,0000.05,0000.09,0000.04,0000.27,27.2,01.2,0678.7,34.6
2016-07-30T01:35:00Z,0000388,01000608,-000.04,0000.58,-000.36,-000.05,0000.50,0000.03,-000.04,-000.06,-000.39,27.2,01.1,0678.7,34.6
2016-07-30T01:36:00Z,0000388,01000608,0000.02,0000.21,0000.00,0000.19,0000.30,0000.50,0000.02,0000.03,0000.08,27.2,01.1,0678.7,34.6
2016-07-30T01:37:00Z,0000388,01000608,0000.38,-000.30,0000.07,-000.62,-000.31,0000.17,-000.14,-000.04,-000.09,27.2,01.2,0678.7,34.6
2016-07-30T01:38:00Z,0000388,01000608,-000.29,0000.00,0000.14,-000.56,0000.61,0000.16,0000.07,0000.17,0000.21,27.2,01.1,0678.7,34.6
2016-07-30T01:39:00Z,0000388,01000608,-000.25,-000.02,0000.03,0000.16,0000.28,0000.16,0000.00,-000.20,-000.15,27.2,01.1,0678.7,34.6
2016-07-30T01:40:00Z,0000388,01000608,0000.37,0000.10,0000.47,0000.31,0000.06,0000.30,-000.09,0000.15,-000.14,27.2,01.0,0678.7,34.6
2016-07-30T01:41:00Z,0000388,01000608,-000.18,-000.25,0000.03,0000.33,0000.36,-000.16,-000.10,-000.12,0000.15,27.1,01.1,0678.7,34.6
2016-07-30T01:42:00Z,0000388,01000608,-000.05,-000.07,-000.17,0000.09,0000.31,0000.16,-000.18,-000.01,-000.21,27.1,01.0,0678.7,34.6
2016-07-30T01:43:00Z,0000388,01000608,-001.56,0000.48,-000.09,0000.61,0000.06,-000.05,0000.16,0000.05,0000.33,27.1,01.0,0678.7,34.6
2016-07-30T01:44:00Z,0000388,01000608,-000.65,-000.25,-000.07,-000.36,0000.14,0000.06,-000.01,-000.14,-000.05,27.1,01.0,0678.7,34.6
2016-07-30T01:45:00Z,0000388,01000608,0000.57,-000.19,-000.17,-000.28,-000.53,0000.19,-000.07,0000.02,0000.12,27.1,01.0,0678.7,34.6
2016-07-30T01:46:00Z,0000388,01000608,0000.32,-000.49,-000.15,0000.17,-000.20,0000.41,0000.05,-000.07,-000.07,27.1,01.1,0678.7,34.6
2016-07-30T01:47:00Z,0000388,01000608,-000.18,-000.07,0000.07,-000.05,0000.19,0000.33,-000.02,-000.06,-000.36,27.1,00.9,0678.7,34.6
2016-07-30T01:48:00Z,0000388,01000608,-000.70,-000.11,0000.33,-000.17,0000.11,0000.14,0000.01,0000.01,-000.05,27.1,00.9,0678.7,34.6
2016-07-30T01:49:00Z,0000388,01000608,0000.27,-000.23,-000.34,-000.36,-000.14,0000.14,0000.09,0000.09,-000.03,27.0,00.9,0678.7,34.6
2016-07-30T01:50:00Z,0000388,01000608,-000.16,0000.30,-000.21,-000.48,0000.11,0000.00,-000.07,-000.10,0000.05,27.1,00.9,0678.7,34.6
2016-07-30T01:51:00Z,0000388,01000608,0000.72,0000.50,-000.30,-000.51,-000.43,0000.14,0000.12,0000.14,0000.08,27.0,00.9,0678.7,34.6
2016-07-30T01:52:00Z,0000388,01000608,0000.15,0000.37,0000.16,-000.23,0000.56,0000.12,-000.25,-000.22,0000.06,27.1,00.9,0678.7,34.6
2016-07-30T01:53:00Z,0000388,01000608,-000.75,-000.14,0000.12,0000.11,0000.00,-000.20,0000.30,0000.18,0000.03,27.1,01.0,0678.7,34.6
2016-07-30T01:54:00Z,0000388,01000608,-000.18,0000.02,-000.14,0000.20,0000.22,0000.08,-000.15,-000.14,-000.21,27.0,00.9,0678.6,34.6
2016-07-30T01:55:00Z,0000388,01000608,0000.13,0000.21,-000.07,-000.53,0000.19,0000.17,-000.11,0000.05,-000.15,27.0,00.9,0678.6,34.6
2016-07-30T01:56:00Z,0000388,01000608,-000.18,0000.50,0000.20,-000.16,0000.26,0000.22,0000.03,0000.09,0000.13,27.0,01.0,0678.6,34.6
2016-07-30T01:57:00Z,0000388,40000608,,,,,,,,,,,,0678.6,34.6
2016-07-30T01:58:00Z,0000388,61000608,,,,,,,,,,27.0,01.0,0677.6,34.6
2016-07-30T01:59:00Z,0000388,20000608,,,,,,,,,,27.0,01.0,0677.6,34.6
2016-07-30T02:00:00Z,0000388,20000608,,,,,,,,,,26.9,01.0,0677.6,34.6
2016-07-30T02:01:00Z,0000388,20000608,,,,,,,,,,26.8,01.0,0677.6,34.6
2016-07-30T02:02:00Z,0000388,20000608,,,,,,,,,,26.8,01.0,0677.6,34.6
2016-07-30T02:03:00Z,0000388,60000608,,,,,,,,,,26.9,01.0,0677.6,34.6
2016-07-30T02:04:00Z,0000388,41000608,-000.52,-000.09,0000.22,0000.81,0000.03,0000.22,-000.02,-000.14,-000.25,27.0,00.9,0678.5,34.6
2016-07-30T02:05:00Z,0000388,01000608,-002.31,0000.34,0000.26,0000.53,-000.19,0000.14,-000.02,-000.05,0000.23,27.0,00.9,0678.6,34.6
2016-07-30T02:06:00Z,0000388,01000608,-000.18,0000.33,-000.09,-000.28,0000.14,0000.12,-000.02,0000.05,-000.13,27.0,00.9,0678.6,34.6
2016-07-30T02:07:00Z,0000388,01000608,-000.90,-000.83,-000.24,0000.48,0000.11,-000.30,0000.24,-000.05,0000.11,27.0,00.9,0678.6,34.6
2016-07-30T02:08:00Z,0000388,01000608,-000.54,-000.07,-000.05,0000.16,0000.33,0000.06,-000.29,-000.12,-000.07,27.0,00.8,0678.6,34.6
2016-07-30T02:09:00Z,0000388,01000608,0000.38,-000.30,0000.34,0000.11,0000.40,0000.08,-000.00,0000.28,0000.00,27.0,00.8,0678.6,34.6
2016-07-30T02:10:00Z,0000388,01000608,-000.27,0000.00,-000.40,0000.72,0000.56,0000.19,0000.12,-000.27,0000.18,27.0,00.9,0678.6,34.6
2016-07-30T02:11:00Z,0000388,01000608,-000.79,0000.37,-000.10,0000.19,0000.08,0000.20,0000.07,-000.05,-000.14,27.0,00.8,0678.6,34.6
2016-07-30T02:12:00Z,0000388,01000608,-000.31,0000.93,-000.14,0000.73,0000.30,0000.16,-000.22,0000.10,-000.12,27.0,00.8,0678.6,34.6
2016-07-30T02:13:00Z,0000388,01000608,-000.52,0000.12,-000.34,0000.06,-000.06,0000.36,0000.02,-000.06,0000.14,27.0,00.8,0678.6,34.6
2016-07-30T02:14:00Z,0000388,01000608,-000.57,0000.56,-000.15,0000.08,-000.06,-000.20,0000.02,0000.07,-000.22,27.0,00.8,0678.6,34.6
2016-07-30T02:15:00Z,0000388,01000608,-000.70,-000.37,0000.07,0000.11,0000.14,0000.37,0000.05,0000.03,0000.29,27.0,00.8,0678.6,34.6
2016-07-30T02:16:00Z,0000388,01000608,-000.61,-000.09,-000.21,0000.61,0000.14,0000.31,-000.00,-000.05,-000.01,27.0,00.7,0678.6,34.6
2016-07-30T02:17:00Z,0000388,01000608,0000.38,-000.19,-000.10,0000.27,0000.26,0000.02,-000.19,-000.14,-000.28,27.0,00.8,0678.6,34.6
2016-07-30T02:18:00Z,0000388,01000608,-000.74,-000.58,-000.14,0000.09,0000.16,0000.37,0000.25,-000.09,0000.28,26.9,00.9,0678.5,34.6
2016-07-30T02:19:00Z,0000388,01000608,-000.52,0000.11,0000.34,0000.89,0000.17,0000.22,-000.16,0000.29,-000.36,27.0,00.8,0678.5,34.6
2016-07-30T02:20:00Z,0000388,01000608,-000.04,0000.07,-000.10,-000.41,-000.03,0000.11,0000.13,0000.02,0000.15,27.0,00.8,0678.5,34.6
2016-07-30T02:21:00Z,0000388,01000608,-001.06,-000.18,-000.34,0000.95,0000.08,-000.14,0000.07,-000.17,0000.06,26.9,00.9,0678.5,34.6
2016-07-30T02:22:00Z,0000388,01000608,-000.88,0000.28,-000.22,0000.19,0000.20,0000.12,0000.08,0000.11,0000.10,26.9,00.9,0678.5,34.6
2016-07-30T02:23:00Z,0000388,01000608,-000.88,-000.44,0000.43,0000.69,-000.17,0000.14,-000.08,0000.05,-000.13,26.9,00.9,0678.5,34.6
2016-07-30T02:24:00Z,0000388,01000608,-000.66,0000.11,0000.21,0000.98,0000.31,-000.17,-000.06,-000.07,0000.20,27.0,00.9,0678.5,34.6
2016-07-30T02:25:00Z,0000388,01000608,-000.79,-000.28,0000.24,0000.30,-000.16,-000.06,-000.02,0000.13,-000.01,26.9,00.9,0678.5,34.6
2016-07-30T02:26:00Z,0000388,01000608,0000.16,-000.02,-000.14,0000.61,0000.12,0000.27,-000.10,0000.02,-000.10,26.9,00.8,0678.5,34.6
2016-07-30T02:27:00Z,0000388,01000608,-000.77,0000.51,-000.14,0000.33,0000.02,-000.27,0000.29,-000.15,0000.04,26.9,00.8,0678.5,34.6
2016-07-30T02:28:00Z,0000388,01000608,-002.24,-000.56,-000.09,0000.25,0000.12,-000.14,-000.14,-000.02,-000.15,26.9,00.9,0678.5,34.6
2016-07-30T02:29:00Z,0000388,01000608,0000.09,-000.26,-000.43,0000.84,0000.11,-000.02,0000.00,-000.11,0000.06,26.9,00.8,0678.5,34.6
2016-07-30T02:30:00Z,0000388,01000608,-001.45,0000.18,0000.31,0000.09,0000.45,-000.02,-000.10,0000.23,-000.03,26.9,00.9,0678.5,34.6
2016-07-30T02:31:00Z,0000388,01000608,-001.17,-000.30,0000.07,0000.14,0000.08,0000.05,0000.02,-000.19,-000.03,26.8,00.8,0678.5,34.6
2016-07-30T02:32:00Z,0000388,01000608,-001.63,0000.11,-000.34,0000.86,0000.75,0000.02,-000.12,-000.08,0000.04,26.8,00.8,0678.5,34.6
2016-07-30T02:33:00Z,0000388,01000608,-000.97,0000.49,0000.21,0000.42,0000.11,0000.27,0000.25,0000.15,-000.01,26.8,00.8,0678.5,34.6
2016-07-30T02:34:00Z,0000388,01000608,-000.68,0000.04,-000.26,0000.23,0000.09,0000.03,-000.03,0000.08,0000.22,26.8,00.7,0678.5,34.6
2016-07-30T02:35:00Z,0000388,01000608,-000.60,0000.32,0000.26,0000.41,-000.12,0000.16,-000.19,-000.27,-000.49,26.8,00.8,0678.5,34.6
2016-07-30T02:36:00Z,0000388,01000608,-001.18,0000.14,0000.62,0000.64,0000.19,0000.41,0000.03,0000.05,0000.23,26.8,00.7,0678.5,34.6
2016-07-30T02:37:00Z,0000388,01000608,-001.06,-000.10,0000.06,0000.47,0000.03,0000.03,0000.01,-000.14,-000.18,26.8,00.7,0678.5,34.6
2016-07-30T02:38:00Z,0000388,01000608,-000.36,-000.95,-000.15,0000.72,-000.19,0000.22,0000.08,0000.11,0000.22,26.8,00.7,0678.6,34.6
2016-07-30T02:39:00Z,0000388,01000608,-000.72,-000.72,0000.40,0000.62,0000.11,-000.19,-000.21,-000.03,-000.22,26.8,00.7,0678.5,34.6
2016-07-30T02:40:00Z,0000388,01000608,-000.16,-001.00,-000.10,0000.55,0000.03,0000.20,0000.21,0000.17,0000.18,26.8,00.7,0678.6,34.6
2016-07-30T02:41:00Z,0000388,01000608,-000.91,0000.37,-000.19,0000.47,0000.03,0000.12,0000.02,0000.08,-000.06,26.8,00.7,0678.5,34.6
2016-07-30T02:42:00Z,0000388,01000608,-000.27,0000.11,0000.03,0000.51,0000.14,-000.08,-000.10,-000.21,-000.18,26.8,00.7,0678.5,34.6
2016-07-30T02:43:00Z,0000388,01000608,0000.09,-000.48,-000.07,0000.22,0000.26,0000.03,0000.08,-000.03,-000.35,26.8,00.7,0678.6,34.6
2016-07-30T02:44:00Z,0000388,01000608,-000.30,-000.23,0000.28,0000.37,-000.11,0000.02,-000.21,0000.03,0000.43,26.8,00.7,0678.5,34.6
2016-07-30T02:45:00Z,0000388,01000608,-000.95,0000.35,0000.03,0000.14,-000.08,-000.03,0000.16,0000.08,0000.07,26.8,00.7,0678.5,34.6
2016-07-30T02:46:00Z,0000388,01000608,-000.34,-000.30,0000.24,-000.08,-000.34,0000.12,0000.18,-000.10,-000.15,26.8,00.7,0678.5,34.6
2016-07-30T02:47:00Z,0000388,01000608,-001.02,-000.11,-000.05,0000.34,-000.02,-000.25,-000.22,0000.13,-000.07,26.8,00.7,0678.5,34.6
2016-07-30T02:48:00Z,0000388,01000608,-000.43,-000.19,-000.15,-000.17,-000.28,-000.05,-000.05,-000.22,0000.17,26.8,00.6,0678.5,34.6
2016-07-30T02:49:00Z,0000388,01000608,-000.22,-000.21,0000.00,0000.76,0000.26,-000.27,0000.08,0000.21,0000.23,26.8,00.6,0678.5,34.6
2016-07-30T02:50:00Z,0000388,01000608,-000.14,-000.58,-000.02,0000.02,0000.17,0000.53,0000.03,-000.17,-000.27,26.8,00.6,0678.5,34.6
2016-07-30T02:51:00Z,0000388,01000608,-000.95,-000.16,-000.14,0000.23,0000.14,0000.09,-000.17,0000.06,-000.15,26.8,00.5,0678.5,34.6
2016-07-30T02:52:00Z,0000388,01000608,-000.47,-000.12,-000.19,-000.02,0000.31,-000.31,0000.17,-000.09,-000.14,26.8,00.6,0678.5,34.6
2016-07-30T02:53:00Z,0000388,01000608,-000.93,-000.02,-000.09,0000.00,0000.16,-000.12,-000.07,-000.20,-000.10,26.8,00.6,0678.5,34.6
2016-07-30T02:54:00Z,0000388,01000608,-000.29,-000.46,0000.31,0000.12,0000.03,0000.19,0000.29,0000.31,0000.40,26.8,00.6,0678.5,34.6
2016-07-30T02:55:00Z,0000388,01000608,-000.81,0000.02,0000.21,0000.51,0000.26,0000.06,-000.01,-000.02,0000.09,26.8,00.6,0678.5,34.6
2016-07-30T02:56:00Z,0000388,01000608,-001.11,0000.35,-000.15,0000.95,-000.09,-000.03,-000.13,-000.12,0000.02,26.8,00.6,0678.5,34.6
2016-07-30T02:57:00Z,0000388,41000608,,,,,,,,,,,,0678.6,34.6
2016-07-30T02:58:00Z,0000388,61000608,,,,,,,,,,26.8,00.7,0677.5,34.6
2016-07-30T02:59:00Z,0000388,21000608,,,,,,,,,,26.8,00.6,0677.5,34.6
2016-07-30T03:00:00Z,0000388,21000608,,,,,,,,,,26.8,00.6,0677.5,34.6
2016-07-30T03:01:00Z,0000388,21000608,,,,,,,,,,26.8,00.6,0677.5,34.6
2016-07-30T03:02:00Z,0000388,21000608,,,,,,,,,,26.8,00.6,0677.5,34.6
2016-07-30T03:03:00Z,0000388,61000608,,,,,,,,,,26.8,00.6,0677.5,34.6
2016-07-30T03:04:00Z,0000388,41000608,-000.31,-000.72,0000.21,-000.27,0000.12,-000.19,-000.06,-000.11,0000.30,26.9,00.5,0678.4,34.6
2016-07-30T03:05:00Z,0000388,01000608,-001.13,-000.09,0000.26,-000.08,0000.30,0000.19,0000.21,-000.07,-000.23,26.9,00.5,0678.5,34.6
2016-07-30T03:06:00Z,0000388,01000608,0000.05,0000.02,0000.26,0000.09,0000.06,-000.25,-000.18,0000.02,-000.17,26.8,00.5,0678.5,34.6
2016-07-30T03:07:00Z,0000388,01000608,0000.86,-000.18,-000.03,-000.08,0000.20,0000.20,0000.09,0000.14,0000.23,26.8,00.5,0678.5,34.6
2016-07-30T03:08:00Z,0000388,01000608,-000.83,0000.16,0000.05,-000.06,0000.23,0000.14,-000.18,0000.15,-000.24,26.8,00.5,0678.5,34.6
2016-07-30T03:09:00Z,0000388,01000608,-000.74,-000.35,-000.38,0000.08,0000.36,-000.53,0000.20,-000.23,0000.09,26.8,00.5,0678.5,34.6
2016-07-30T03:10:00Z,0000388,01000608,-000.83,-000.02,-000.19,-000.11,-000.09,0000.20,-000.09,0000.10,0000.02,26.8,00.5,0678.5,34.6
2016-07-30T03:11:00Z,0000388,01000608,0000.22,-000.02,0000.24,-000.36,0000.34,0000.16,-000.07,0000.08,-000.18,26.8,00.4,0678.5,34.6
2016-07-30T03:12:00Z,0000388,01000608,0000.47,-000.81,-000.09,-000.02,0000.30,0000.25,0000.05,-000.06,-000.02,26.9,00.5,0678.5,34.6